Погода в Ключи

Погода в Ключи : погода сейчас, прогноз погоды и архив. Всё, что Вы хотите узнать о погоде в Ключи!

Поиск расширенной информации на нашем сайте:

Другие новости

Новости СМИ2

Главная страница сайта

Новости сайта

03.07.2017

Напоминаем, что на нашем специализированном сайте Метеоцентр.Азия вы можете получить высокодетализированные автоматические прогнозы погоды по пунктам России, СНГ и мира в авиационном формате (включающие направление и скорость ветра, видимость, явления погоды, количество и форму облачности, нижнюю и верхнюю границу облачности).

Рекомендуем: 24 И 48 форма Ян-ши тайдзицюань.

Погода в Ключи - сегодня

Время (UTC), дата Ветер
(°,м/с) 
Видим.   Явления Облачность Т
(°С)
Тd
(°С)
f(%) Тe
(°С)
Pmin
(гПа)
dP
(гПа)
Po
(мм)
O2
(г/м3)
Тmin Tmax R s Состояние
почвы
03 20.07.17 260 (З) 20000 м    3/0 верхняя 
[Ci sp]
+20.7 +13.2 62 +27  1011.5  0.7  746  277           
06 20.07.17 270 (З) 5{10}  20000 м    5/5 600 м 
[Cu hum]
+24.9 +10.4 40 +27  1010.9  -0.4  746  274           
09 20.07.17 210 (ЮЗ) 20000 м    8/5 600 м верхняя 
[Cu hum|Ci sp]
+23.6 +12.3 49 +28  1010.3  -0.6  746  274           
12 20.07.17 310 (СЗ) 5{10}  20000 м    9/8 600 м верхняя 
[Cu hum|Ci sp]
+25.7 +8.3 33 +26  1010.2  -0.1  745  273    +27       
15 20.07.17 240 (ЮЗ) 20000 м    6/3 600 м верхняя 
[Cu hum|Ci sp]
+21.5 +12.4 56 +26  1011  0.6  746  276           
18 20.07.17 240 (ЮЗ) 20000 м    5/0 верхняя 
[Ci sp]
+17.8 +12.8 73 +24  1011.5  0.3  746  280           
21 20.07.17 260 (З) 20000 м    4/0 верхняя 
[Ci fib]
+15.5 +12.2 81 +20  1011.7  0.1  746  282           
00 21.07.17 250 (З) 20000 м    4/0 средняя, верхняя 
[Ac As|Cc]
+15.3 +12.2 82 +20  1012.4  0.6  747  283  +14.3        сухая 
03 21.07.17 240 (ЮЗ) 20000 м    3/0 верхняя 
[Ci sp]
+22.2 +13.2 57 +28  1012.6  0.6  747  276           
06 21.07.17 300 (СЗ) 20000 м    6/4 600 м верхняя 
[Cu med, cong|Ci sp]
+24.9 +10.5 40 +27  1011.8  -0.6  747  274           
09 21.07.17 310 (СЗ) 4{12}  20000 м  в посл. час гроза  9/3 600 м кучево-дожд., средняя, верхняя 
[Cb cap|Ac cuf|Ci sp]
+24.5 +12.6 47 +29  1011.6  -0.2  746  274           
12 21.07.17 270 (З) 20000 м  {гроза}  6/3 600 м средняя, верхняя 
[Cu hum|Ac cast|Cc]
+26.4 +9.6 35 +27  1010.7  -0.8  746  272    +27.7       
15 21.07.17 110 (В) 20000 м  зарница  8/5 600 м кучево-дожд., верхняя 
[Cb cap|Ci sp]
+20.4 +12.9 62 +26  1011.5  0.4  746  277           
18 21.07.17 050 (СВ) 20000 м    6/0 верхняя 
[Ci sp]
+16.2 +13.6 85 +24  1011.4  -0.3  746  281           
21 21.07.17 тихо ()   20000 м    9/0 средняя, верхняя 
[Ac As|Ci sp]
+15.8 +13.8 88 +23  1010.9  -0.5  746  281           
00 22.07.17 тихо ()   20000 м    9/0 средняя, верхняя 
[Ac As|Ci sp]
+16.7 +13.7 82 +23  1011.1  0.2  746  280  +15.3        сухая 
03 22.07.17 200 (Ю) 20000 м    10/1 600 м кучево-дожд., средняя, верхняя 
[Cb cap|Ac cuf|Ci sp]
+20.9 +14 65 +28  1011.8  746  277           
06 22.07.17 190 (Ю) 20000 м  в посл. час гроза{ливн. осадки}  10/3 600 м кучево-дожд., средняя 
[Cb cap|Ac und]
+17.7 +14.5 82 +26  1012.4  0.4  747  280           
09 22.07.17 250 (З) 20000 м    10/1 600 м кучево-дожд., средняя, верхняя 
[Cb cap|Ac cuf|Ci sp]
+21.7 +13.8 61 +28  1012.1  -0.1  747  276           
12 22.07.17 330 (СЗ) 20000 м    9/1 600 м верхняя 
[Cu med, cong|Ci sp]
+21.6 +13.6 60 +28  1011.6  -0.5  746  276    +24  0.0     
15 22.07.17 250 (З) 20000 м    3/0 средняя 
[Ac lent]
+19.1 +13.8 71 +27  1011.9  0.2  746  278           
18 22.07.17 250 (З) 20000 м    ясно 
+14.7 +12.8 88 +21  1012.2  746  283           
21 22.07.17 270 (З) 20000 м    ясно 
+14.9 +12.9 88 +21  1011.7  -0.5  746  283           
00 23.07.17 260 (З) 20000 м    ясно 
+15.8 +13.1 84 +23  1011.6  746  282  +14        сухая 
03 23.07.17 280 (З) 20000 м    10/0 верхняя 
[Cc]
+22.5 +13.3 56 +28  1011.5  0.3  746  275           
Время (UTC), дата Ветер
(°,м/с) 
Видим.   Явления Облачность Т
(°С)
Тd
(°С)
f(%) Тe
(°С)
Pmin
(гПа)
dP
(гПа)
Po
(мм)
O2
(г/м3)
Тmin Tmax R s Состояние
почвы

Для получения пояснительной информации подведите курсор к названию столбца.

ПОГОДА в Ключи - архив

Всё, что Вы хотите узнать о погоде в Ключи - удобно и подробно!

Выберите нужную дату (начиная с 1 января 2015* года) и нажмите кнопку "Найти".
Будут отображены архивные сводки погоды по пункту Ключи, начиная с указанной даты.


Отображать данные в формате CSV (для использования в таблицах Excel)


Внимание! Наш архив погоды предназначен исключительно для личного некоммерческого использования в познавательных целях. Если Вам необходимы официальные справки о состоянии погоды (для производственных, юридических, коммерческих и т.п. целей), обращайтесь в органы Росгидромета.

*Примечание: данная дата относится к архиву по метеостанциям СССР (Россия, СНГ, Балтия).
Архив по метеостанциям Зарубежной Европы и Азии (кроме Китая) хранится 10 дней, по другим регионам земного шара (Китай, Африка, Америка, Австралия, Океания) - 1 день.

Ключи - район местоположения метеостанции


Название, широта, долгота, высота метеостанции:
Ключи 52.2°ш. 79.1°д. 143 м над ур. моря [Российская Федерация]

Дополнительная информация

В oтличие oт бoльшинства пoгoдных сайтoв мы публикуем пoдрoбную метеoинфoрмацию в детальнoм прoфессиoнальнoм фoрмате.

Характеристики температуры и влажнoсти вoздуха измеряются на высoте 2 м в тени вдали oт зданий и деревьев.
Скoрoсть ветра измеряется на высoте 10 м (на урoвне рoста челoвека скoрoсть ветра ниже в 1.5-2 раза). Если метеoстанция нахoдится в гoрoде или в лесу, тo скoрoсть ветра занижена на 2-4 м/с пo сравнению с oткрытым местoм. Скoрoсть ветра над акватoриями крупных рек и oзёр, а также на вершинах хoлмoв на 2-5 м/с выше, чем в oбычных услoвиях.
Атмoсфернoе давление в разных тoчках местнoсти мoжет значительнo oтличаться oт давления на метеoстанции, в зависимoсти oт услoвий рельефа (при пoдъёме на 10 м давление пoнижается примернo на 1 мм рт.ст.).